Home   Weather   Saint John's   Past weeks

Flag for Antigua and Barbuda Past Weather in Saint John's, Antigua and Barbuda — Yesterday and Last 2 Weeks

Now
81 °F

Partly sunny.


Feels Like: 85 °F
Forecast: 75 / 83 °F
Wind: 9 mph from East

Location: Vc Bird International Antigua Airport

Current Time: Dec 6, 2016 at 10:17:16 am

Latest Report: Dec 6, 2016 at 9:00 am


Visibility: N/A

Pressure: 30.04 "Hg

Humidity: 74%

Dew Point: 72 °F

Location of Saint John'sLocation

Past Weather in Saint John's — Graph

°F

Saint John's Temperature Yesterday

Maximum temperature yesterday: 82 °F (at 9:00 am)
Minimum temperature yesterday: 77 °F (at 7:00 am)
Average temperature yesterday: 80 °F

High & Low Weather Summary for the Past Weeks

 TemperatureHumidityPressure
High86 °F (Nov 22, 12:00 pm)100% (Nov 28, 4:00 pm)30.04 "Hg (Nov 28, 4:00 pm)
Low72 °F (Nov 28, 1:00 pm)62% (Nov 24, 4:00 pm)29.74 "Hg (Nov 28, 6:00 pm)
Average79 °F78%29.91 "Hg
* Reported Nov 21 9:00 am — Dec 6 9:00 am, Saint John's, Weather by CustomWeather, © 2016

Note: Actual official high and low records may vary slightly from our data, if they occured in-between our weather recording intervals... More about our weather records

Advertising

Saint John's Weather History for the Previous 24 Hours

Scroll right to see more
 ConditionsComfort  
Time TempWeatherWind HumidityBarometerVisibility
9:00 am
Tue, Dec 6
81 °FPartly sunny.9 mph74%30.04 "HgN/A
8:00 am81 °FScattered clouds.8 mph70%30.01 "HgN/A
7:00 am79 °FPassing clouds.8 mph70%30.01 "HgN/A
6:00 am79 °FPassing clouds.9 mph70%29.98 "HgN/A
5:00 am77 °FPassing clouds.9 mph79%29.98 "HgN/A
4:00 am77 °FPassing clouds.8 mph74%29.95 "HgN/A
3:00 am77 °FPassing clouds.8 mph79%29.98 "HgN/A
2:00 am77 °FPassing clouds.9 mph74%29.98 "HgN/A
1:00 am79 °FPassing clouds.9 mph70%29.98 "HgN/A
12:00 am77 °FPassing clouds.8 mph74%29.98 "HgN/A
11:00 pm
Mon, Dec 5
77 °FPassing clouds.7 mph79%30.01 "HgN/A
10:00 pm77 °FPassing clouds.8 mph79%30.01 "HgN/A
9:00 pm79 °FPassing clouds.9 mph79%30.01 "HgN/A
8:00 pm79 °FPassing clouds.9 mph79%29.98 "HgN/A
7:00 pm79 °FPassing clouds.10 mph79%29.98 "HgN/A
6:00 pm79 °FPassing clouds.9 mph79%29.95 "HgN/A
5:00 pm79 °FScattered clouds.8 mph79%29.95 "HgN/A
4:00 pm81 °FPassing clouds.9 mph74%29.95 "HgN/A
3:00 pm82 °FScattered clouds.9 mph74%29.95 "HgN/A
2:00 pm82 °FPassing clouds.9 mph70%29.95 "HgN/A
1:00 pm82 °FPassing clouds.10 mph74%29.95 "HgN/A
12:00 pm82 °FScattered clouds.12 mph70%29.98 "HgN/A
11:00 am82 °FPassing clouds.13 mph70%30.01 "HgN/A
10:00 am82 °FPassing clouds.13 mph74%30.01 "HgN/A
Weather by CustomWeather, © 2016

See weather overviewHow to use our weather pages